Crane Lake, MN

7:56 PM CST on December 04, 2016 (GMT -0600)
Crane Lake

Weather History for KCDD - September, 2013

Change the Weather History Date:

Thursday, September 19, 2013

  Actual Average Record
Temperature  
Mean Temperature 64 °F -  
Max Temperature 69 °F 62 °F 84 °F (2004)
Min Temperature 59 °F 42 °F 32 °F (1996)
Degree Days  
Heating Degree Days 1    
Growing Degree Days 14 (Base 50)    
Moisture  
Dew Point 63 °F    
Average Humidity 97    
Maximum Humidity 100    
Minimum Humidity 88    
Precipitation  
Precipitation 0.28 in - - ()
Sea Level Pressure  
Sea Level Pressure 29.71 in    
Wind  
Wind Speed 1 mph (South)    
Max Wind Speed 7 mph    
Max Gust Speed 18 mph    
Visibility 5 miles    
Events Rain , Thunderstorm    
Averages and records for this station are not official NWS values.
T = Trace of Precipitation, MM = Missing Value Source: NWS Daily Summary

Daily Weather History Graph

Daily Weather History Graph

Search for Another Location

Airport or City:

Trip Planner

Search our weather history database for the weather conditions in past years. The results will help you decide how hot, cold, wet, or windy it might be!

Date:

Astronomy

Sep. 19, 2013 Rise Set
Actual Time 6:52 AM CDT 7:13 PM CDT
Civil Twilight 6:21 AM CDT 7:44 PM CDT
Nautical Twilight 5:44 AM CDT 8:21 PM CDT
Astronomical Twilight 5:06 AM CDT 8:59 PM CDT
Moon 7:05 PM CDT (9/19) 7:06 AM CDT (9/19)
Length of Visible Light 13h 23m
Length of Day
12h 20m
Full, 100% of the Moon is Illuminated
Sep 19
Full
Sep 26
Last Quarter
Oct 4
New
Oct 11
First Quarter
Oct 18
Full

Hourly Weather History & Observations

Time (CDT) Temp. Dew Point Humidity Pressure Visibility Wind Dir Wind Speed Gust Speed Precip Events Conditions
12:14 AM 62.6 °F 60.8 °F 94% 29.76 in 10.0 mi SE 3.5 mph - N/A   Overcast
12:34 AM 62.6 °F 60.8 °F 94% 29.76 in 7.0 mi Calm Calm - N/A   Overcast
12:54 AM 62.6 °F 60.8 °F 94% 29.75 in 7.0 mi Calm Calm - N/A   Overcast
1:14 AM 62.6 °F 60.8 °F 94% 29.75 in 10.0 mi Calm Calm - N/A   Overcast
1:34 AM 62.6 °F 60.8 °F 94% 29.75 in 10.0 mi SSE 4.6 mph - N/A   Overcast
1:54 AM 62.6 °F 60.8 °F 94% 29.74 in 10.0 mi Calm Calm - N/A   Overcast
2:14 AM 62.6 °F 62.6 °F 100% 29.74 in 10.0 mi Calm Calm - N/A   Overcast
2:34 AM 62.6 °F 62.6 °F 100% 29.73 in 7.0 mi SE 3.5 mph - N/A   Overcast
2:54 AM 62.6 °F 62.6 °F 100% 29.72 in 7.0 mi Calm Calm - N/A   Overcast
3:14 AM 64.4 °F 62.6 °F 94% 29.73 in 7.0 mi South 3.5 mph - N/A   Overcast
3:34 AM 64.4 °F 62.6 °F 94% 29.76 in 5.0 mi West 4.6 mph - N/A Thunderstorm Overcast
3:54 AM 62.6 °F 62.6 °F 100% 29.75 in 5.0 mi Calm Calm - 0.04 in Rain , Thunderstorm Light Thunderstorms and Rain
4:14 AM 62.6 °F 60.8 °F 94% 29.74 in 1.2 mi Calm Calm - 0.09 in Rain , Thunderstorm Light Thunderstorms and Rain
4:34 AM 60.8 °F 60.8 °F 100% 29.72 in 3.0 mi Calm Calm - 0.09 in Thunderstorm Mostly Cloudy
4:54 AM 60.8 °F 60.8 °F 100% 29.71 in 1.0 mi Calm Calm - 0.09 in   Overcast
5:15 AM 60.8 °F 60.8 °F 100% 29.71 in 5.0 mi SE 3.5 mph - N/A   Mostly Cloudy
5:34 AM 60.8 °F 59.0 °F 94% 29.68 in 3.0 mi Calm Calm - N/A   Scattered Clouds
5:54 AM 60.8 °F 59.0 °F 94% 29.66 in 5.0 mi Calm Calm - N/A   Clear
6:14 AM 60.8 °F 60.8 °F 100% 29.71 in 10.0 mi South 4.6 mph - 0.01 in   Clear
6:34 AM 60.8 °F 60.8 °F 100% 29.70 in 1.8 mi SE 3.5 mph - 0.01 in   Mostly Cloudy
6:54 AM 60.8 °F 60.8 °F 100% 29.71 in 5.0 mi Calm Calm - 0.01 in   Mostly Cloudy
7:14 AM 62.6 °F 60.8 °F 94% 29.72 in 1.8 mi Calm Calm - N/A   Overcast
7:34 AM 62.6 °F 60.8 °F 94% 29.73 in 2.5 mi Calm Calm - N/A   Overcast
7:54 AM 62.6 °F 62.6 °F 100% 29.72 in 1.8 mi Calm Calm - N/A   Overcast
8:14 AM 62.6 °F 62.6 °F 100% 29.70 in 2.5 mi Calm Calm - N/A   Overcast
8:34 AM 64.4 °F 62.6 °F 94% 29.71 in 2.5 mi Calm Calm - N/A   Overcast
8:54 AM 64.4 °F 64.4 °F 100% 29.71 in 3.0 mi Calm Calm - N/A   Overcast
9:14 AM 64.4 °F 64.4 °F 100% 29.71 in 2.5 mi Calm Calm - N/A   Overcast
9:34 AM 64.4 °F 64.4 °F 100% 29.71 in 2.0 mi Calm Calm - N/A   Overcast
9:54 AM 66.2 °F 64.4 °F 94% 29.71 in 2.5 mi Calm Calm - N/A   Overcast
10:14 AM 66.2 °F 64.4 °F 94% 29.71 in 2.5 mi SSE 3.5 mph - N/A   Overcast
10:34 AM 66.2 °F 64.4 °F 94% 29.71 in 1.5 mi Calm Calm - N/A   Overcast
10:54 AM 66.2 °F 64.4 °F 94% 29.70 in 2.0 mi Calm Calm - N/A   Overcast
11:14 AM 66.2 °F 66.2 °F 100% 29.70 in 3.0 mi SSE 3.5 mph - N/A   Overcast
11:34 AM 66.2 °F 66.2 °F 100% 29.70 in 3.0 mi Calm Calm - N/A   Overcast
11:54 AM 68.0 °F 66.2 °F 94% 29.70 in 4.0 mi Calm Calm - N/A   Overcast
12:14 PM 68.0 °F 66.2 °F 94% 29.70 in 5.0 mi Calm Calm - N/A   Overcast
12:34 PM 68.0 °F 66.2 °F 94% 29.70 in 5.0 mi SSE 4.6 mph - N/A   Overcast
12:54 PM 68.0 °F 66.2 °F 94% 29.71 in 5.0 mi South 3.5 mph - N/A   Overcast
1:14 PM 66.2 °F 66.2 °F 100% 29.72 in 4.0 mi Calm Calm - N/A   Overcast
1:34 PM 66.2 °F 66.2 °F 100% 29.70 in 3.0 mi Calm Calm - N/A   Overcast
1:54 PM 66.2 °F 66.2 °F 100% 29.69 in 3.0 mi Calm Calm - N/A Rain Light Rain
2:14 PM 66.2 °F 66.2 °F 100% 29.68 in 3.0 mi Calm Calm - N/A Rain Light Rain
2:34 PM 66.2 °F 66.2 °F 100% 29.67 in 2.5 mi Calm Calm - N/A   Overcast
2:54 PM 66.2 °F 66.2 °F 100% 29.67 in 3.0 mi Calm Calm - N/A   Overcast
3:14 PM 66.2 °F 66.2 °F 100% 29.68 in 3.0 mi Calm Calm - N/A Rain Light Rain
3:34 PM 66.2 °F 66.2 °F 100% 29.67 in 2.5 mi Calm Calm - N/A Rain Light Rain
3:54 PM 66.2 °F 66.2 °F 100% 29.67 in 3.0 mi Calm Calm - N/A Rain Light Rain
4:14 PM 68.0 °F 66.2 °F 94% 29.67 in 4.0 mi Calm Calm - N/A Rain Light Rain
4:34 PM 68.0 °F 66.2 °F 94% 29.67 in 5.0 mi Calm Calm - N/A   Mostly Cloudy
4:54 PM 69.8 °F 68.0 °F 94% 29.68 in 7.0 mi Calm Calm - N/A   Overcast
5:14 PM 69.8 °F 68.0 °F 94% 29.68 in 5.0 mi Calm Calm - N/A   Overcast
5:34 PM 68.0 °F 66.2 °F 94% 29.68 in 4.0 mi Calm Calm - N/A   Mostly Cloudy
5:54 PM 68.0 °F 66.2 °F 94% 29.68 in 3.0 mi Calm Calm - N/A Rain Light Rain
6:14 PM 68.0 °F 66.2 °F 94% 29.68 in 3.0 mi Calm Calm - N/A   Mostly Cloudy
6:34 PM 66.2 °F 66.2 °F 100% 29.68 in 2.5 mi Calm Calm - N/A   Mostly Cloudy
6:54 PM 66.2 °F 64.4 °F 94% 29.69 in 1.2 mi Calm Calm - N/A   Mostly Cloudy
7:14 PM 66.2 °F 64.4 °F 94% 29.69 in 0.8 mi Calm Calm - N/A   Overcast
7:34 PM 64.4 °F 64.4 °F 100% 29.68 in 0.2 mi Calm Calm - N/A   Light Drizzle
7:54 PM 64.4 °F 62.6 °F 94% 29.71 in 0.5 mi SW 3.5 mph - 0.01 in Rain Rain
8:14 PM 66.2 °F 64.4 °F 94% 29.69 in 1.2 mi Calm Calm - 0.08 in Rain Rain
8:34 PM 64.4 °F 62.6 °F 94% 29.73 in 5.0 mi WNW 6.9 mph 18.4 mph 0.08 in Rain Rain
8:54 PM 60.8 °F 60.8 °F 100% 29.71 in 7.0 mi NNE 3.5 mph - 0.13 in Rain Rain
9:14 PM 60.8 °F 57.2 °F 88% 29.71 in 10.0 mi Calm Calm - N/A   Scattered Clouds
9:34 PM 59.0 °F 57.2 °F 94% 29.71 in 10.0 mi Calm Calm - N/A   Clear
9:54 PM 59.0 °F 59.0 °F 100% 29.71 in 10.0 mi Calm Calm - N/A   Mostly Cloudy
10:14 PM 59.0 °F 59.0 °F 100% 29.71 in 10.0 mi Calm Calm - N/A   Mostly Cloudy
10:34 PM 60.8 °F 60.8 °F 100% 29.71 in 10.0 mi Calm Calm - N/A   Overcast
10:54 PM 60.8 °F 60.8 °F 100% 29.70 in 10.0 mi WNW 3.5 mph - N/A   Overcast
11:14 PM 60.8 °F 60.8 °F 100% 29.71 in 10.0 mi Calm Calm - N/A   Overcast
11:34 PM 60.8 °F 60.8 °F 100% 29.71 in 10.0 mi Calm Calm - N/A   Overcast
11:54 PM 60.8 °F 60.8 °F 100% 29.71 in 10.0 mi NW 3.5 mph - N/A   Overcast